Wind_Speed
38 34 29 24 20 19 13 11 12 5 5 5 8 9 9 13 14 18 21 26 30 34 39 38 42 45 46 47 40 43 44 42 42 50 48 44 35 27 18 16 14 10 12 14 17 20 24 25 16
40 36 31 27 22 19 14 12 11 7 3 4 6 5 8 9 9 14 17 24 28 31 36 37 38 45 46 44 42 44 46 39 38 42 50 48 43 38 30 22 15 12 11 13 15 20 23 22 20
42 39 34 28 23 21 14 17 13 9 7 6 8 7 7 5 8 8 12 18 24 24 28 34 36 40 43 44 43 42 47 44 38 36 42 44 43 40 38 34 27 21 15 14 18 19 21 18 15
44 42 36 30 26 26 21 21 20 14 11 9 7 7 4 6 8 6 6 13 16 16 23 27 35 36 40 42 40 41 45 46 42 38 38 40 41 43 37 37 36 29 26 20 19 19 21 15 12
47 44 38 32 29 29 23 22 18 21 15 11 10 9 2 4 7 10 8 9 9 14 18 23 30 33 38 40 40 37 42 43 45 44 42 38 38 41 40 40 37 34 33 31 26 24 21 13 10
50 46 40 33 31 33 24 22 19 20 18 9 10 11 2 2 6 6 6 5 11 11 13 19 25 29 33 36 39 39 39 41 41 44 46 43 46 43 42 40 41 39 30 30 29 27 26 23 13
52 50 44 37 34 35 26 24 18 17 19 14 12 13 6 2 1 4 5 7 10 11 14 15 21 24 29 31 34 37 39 40 39 37 42 45 45 48 49 44 44 41 40 36 31 31 32 29 24
54 53 49 42 35 33 29 26 22 17 19 14 14 14 10 6 3 6 8 10 13 13 12 16 17 20 25 27 29 30 35 35 40 39 36 37 42 44 49 48 47 40 43 44 43 37 36 33 27
52 54 52 46 37 36 34 30 27 22 21 15 14 13 16 9 9 9 10 13 15 17 13 16 18 17 21 24 25 26 29 31 35 36 36 33 36 36 40 44 47 44 46 45 49 46 39 33 31
53 54 56 50 40 37 40 35 33 28 24 22 17 16 17 18 14 11 13 12 15 17 16 14 13 12 15 22 24 23 29 24 30 33 34 35 35 30 33 38 40 41 41 37 43 42 39 33 29
56 56 62 56 45 41 41 41 35 31 26 25 24 22 20 16 17 16 13 13 17 15 17 14 11 11 12 16 21 22 22 27 23 29 29 32 30 31 27 29 33 37 34 35 29 31 40 38 33
58 60 65 61 51 42 41 44 39 35 30 28 24 21 18 17 15 16 14 17 14 17 16 14 15 11 11 13 15 21 21 25 25 25 26 29 30 33 29 26 25 29 30 29 26 28 27 29 31
61 63 68 66 53 47 42 45 44 38 35 31 28 27 24 21 22 17 16 13 7 10 12 15 18 19 15 11 12 17 22 25 25 25 25 25 27 30 33 31 24 26 28 27 27 25 26 25 22
60 66 68 67 57 52 47 48 46 46 41 36 30 30 28 23 23 23 20 16 10 12 17 16 17 17 17 15 18 14 21 25 28 28 27 25 24 26 28 31 32 25 26 28 25 22 21 23 22
56 68 70 71 66 59 56 52 51 53 48 39 34 33 31 28 25 23 21 22 15 14 9 13 16 20 16 18 24 20 20 21 28 29 32 28 27 25 24 27 32 32 30 30 23 23 21 21 24
59 58 70 73 73 65 61 56 59 60 54 43 39 36 34 33 30 26 22 24 25 17 15 16 15 18 20 19 22 30 26 22 27 30 32 34 31 28 29 27 29 33 33 32 27 25 22 22 23
63 53 60 74 77 74 65 62 66 66 57 45 43 41 40 38 35 31 25 25 26 23 21 21 17 17 22 22 23 22 25 26 27 29 32 35 34 31 29 31 31 31 33 31 32 33 28 24 25
64 60 59 67 77 79 73 66 73 71 58 48 46 43 43 42 42 37 33 28 26 28 25 25 24 22 22 22 23 26 25 26 27 29 29 31 35 35 33 33 33 30 33 33 31 34 33 31 28
74 73 67 65 72 80 76 72 71 70 63 51 49 51 51 49 48 40 41 37 34 33 32 29 29 29 29 28 26 27 28 27 29 31 33 30 32 35 36 37 36 36 28 30 31 33 34 34 30
83 78 69 70 70 79 79 77 75 75 70 59 55 56 55 53 52 47 45 44 41 37 36 36 36 34 33 32 32 30 32 31 32 33 33 34 33 34 37 38 39 37 35 28 28 27 33 35 35
89 82 73 73 76 76 78 80 79 76 75 68 59 58 60 59 60 55 52 49 46 45 42 40 40 38 38 36 36 34 36 35 37 38 38 37 37 34 36 40 41 40 39 35 31 33 32 34 36
91 85 84 84 84 78 84 75 81 76 73 71 65 61 64 64 67 62 60 54 52 51 48 45 43 42 40 41 39 38 38 40 40 41 40 41 41 41 37 39 42 41 41 40 38 38 38 36 33
98 98 95 96 95 94 90 83 62 71 71 71 68 65 67 72 70 70 66 61 55 55 55 52 50 47 46 44 44 42 41 41 43 43 43 42 42 44 43 40 43 44 42 44 44 43 41 41 40
107 105 106 104 105 105 84 86 60 66 62 66 72 70 69 80 75 75 73 68 62 61 60 59 58 52 52 51 51 49 47 47 46 46 45 45 46 46 46 45 45 46 50 50 48 48 48 46 44
117 113 114 113 113 99 82 94 64 60 61 59 64 70 76 86 78 74 73 72 71 70 67 65 63 58 59 58 58 56 54 53 52 51 50 50 49 48 49 47 46 44 46 50 55 57 52 50 46
116 114 114 111 106 96 97 100 69 66 66 63 62 65 70 82 85 77 75 76 79 78 74 71 68 65 65 65 66 63 61 61 59 59 56 55 54 51 50 49 50 50 48 47 51 59 54 53 55
118 127 111 117 117 115 110 97 88 80 75 72 68 64 67 72 74 80 82 81 82 83 81 78 75 72 71 72 72 69 67 67 65 64 60 60 60 56 54 54 55 54 52 54 55 57 57 57 61
133 120 128 132 130 129 115 102 94 87 79 77 75 70 69 66 70 67 67 73 85 85 82 81 80 79 78 78 76 73 72 70 69 66 67 66 63 60 60 58 59 58 59 60 59 58 59 61 65
140 138 133 133 134 133 125 110 96 89 87 85 83 83 78 72 74 73 68 66 69 73 78 83 85 83 82 81 78 75 74 74 72 71 68 66 64 63 62 62 62 62 62 62 62 62 60 66 67
148 146 142 138 134 134 127 115 103 96 91 91 90 86 83 81 77 76 74 72 69 67 68 72 74 78 80 78 78 77 75 73 71 68 68 67 67 65 64 63 64 66 65 65 63 62 66 70 73
Wind_Direction
236 237 232 244 254 256 246 235 229 225 101 289 322 358 20 41 68 67 58 57 52 45 45 39 37 34 32 33 35 35 38 38 45 43 41 44 48 43 19 16 25 26 12 13 21 20 14 17 17
236 234 230 239 247 247 256 243 264 239 183 251 276 337 4 33 75 74 59 54 52 46 43 40 37 35 35 35 39 36 36 38 42 43 45 43 42 40 43 38 19 17 15 4 10 360 0 2 11
235 233 229 233 238 241 240 254 267 268 255 254 293 327 7 45 72 82 67 50 48 44 41 33 38 38 36 38 39 39 35 36 36 39 40 44 45 39 34 36 35 22 2 347 353 358 5 2 5
233 234 231 231 232 235 236 237 269 264 251 270 285 300 12 37 49 53 59 36 35 39 35 35 35 39 39 35 38 41 37 38 36 35 36 39 40 40 38 31 32 30 32 19 13 3 356 6 3
233 234 231 229 229 229 233 241 260 261 259 243 282 286 21 47 50 42 46 36 30 25 26 32 32 41 41 36 36 39 37 39 38 38 38 40 41 43 41 41 35 31 28 26 24 22 12 2 13
231 232 231 228 233 225 226 236 257 247 248 255 254 270 271 89 35 40 50 29 25 20 21 23 27 35 41 40 38 38 39 42 41 40 42 42 41 42 40 42 41 42 36 27 29 35 38 31 2
230 235 231 228 234 229 228 233 243 226 230 242 238 250 258 255 340 9 5 354 0 2 14 17 24 32 38 42 41 37 36 40 44 43 41 45 42 43 44 44 40 41 40 45 47 41 44 39 34
228 233 233 228 232 236 228 231 224 229 249 252 224 239 253 252 291 318 329 336 335 331 341 358 24 28 34 39 38 39 33 32 40 43 44 45 45 45 48 50 43 43 40 40 44 43 40 36 34
227 233 234 230 227 237 231 227 216 232 242 236 231 238 245 247 277 303 314 323 316 315 317 321 349 22 31 37 33 34 34 34 34 40 42 45 45 44 48 53 51 51 46 47 47 41 39 36 29
227 232 236 232 226 231 238 229 225 226 240 243 239 237 251 253 262 282 295 313 316 309 309 315 345 0 28 36 32 26 25 29 31 36 41 42 43 39 40 48 51 54 52 49 48 46 42 40 38
228 231 237 234 224 228 234 236 228 228 235 237 245 253 262 270 252 272 281 296 304 317 305 305 342 340 18 30 28 22 19 22 21 24 36 40 43 39 33 35 38 49 54 54 49 48 44 41 36
228 231 237 238 229 230 231 239 232 234 230 234 238 239 248 265 277 297 290 292 286 318 301 298 303 325 351 25 22 20 14 10 15 13 16 29 37 37 33 28 26 30 47 52 49 40 38 38 35
231 230 237 240 235 234 233 236 240 230 236 234 239 246 242 253 264 267 293 316 294 290 321 294 310 325 318 332 17 16 10 3 2 5 11 10 17 24 29 25 23 20 22 34 38 41 34 27 21
233 234 236 240 234 231 230 231 240 237 231 231 236 244 252 252 260 270 281 291 312 281 277 302 319 318 334 318 329 6 2 354 357 357 358 1 1 3 5 15 19 13 11 9 21 24 29 25 16
232 233 234 237 235 229 230 230 235 240 234 228 225 233 246 252 254 263 271 284 287 307 311 299 309 319 332 325 311 322 339 344 348 347 351 350 354 360 358 355 5 9 3 3 3 9 9 7 12
229 236 236 237 237 231 230 233 234 238 238 231 225 226 235 247 250 251 263 277 286 294 305 306 311 315 325 335 319 307 320 342 343 343 342 344 348 353 356 351 351 359 359 359 354 355 356 1 0
229 235 241 240 239 237 229 231 237 236 239 237 235 228 225 232 245 250 250 265 279 285 290 294 303 306 310 318 325 329 324 329 336 344 345 339 336 340 345 346 346 346 353 352 347 344 345 342 345
236 234 240 239 242 240 234 226 235 241 240 238 241 242 241 237 237 243 247 244 258 273 278 284 289 291 294 305 315 319 325 330 332 334 341 347 337 330 331 336 338 338 345 344 342 341 337 337 337
236 234 236 238 242 240 239 231 235 241 244 238 237 238 241 244 245 242 245 247 247 257 268 274 279 287 294 298 305 311 315 322 327 330 335 336 341 335 329 325 328 328 332 346 340 337 335 334 327
236 235 234 241 243 241 238 237 233 237 241 238 237 239 240 243 248 248 249 252 255 256 261 268 274 281 287 294 300 306 310 313 317 325 330 329 332 337 329 323 321 318 322 337 343 337 328 323 327
234 236 239 241 245 242 240 235 236 236 239 241 238 242 244 245 248 250 251 253 257 260 262 265 271 278 284 288 294 301 304 308 313 318 323 327 328 328 328 324 318 316 309 323 335 343 329 323 320
234 235 237 240 243 242 240 235 237 236 239 242 241 240 244 247 249 250 250 251 256 261 265 267 269 274 281 285 290 295 301 304 308 314 318 320 321 323 323 324 318 313 305 313 323 331 334 327 325
241 237 237 237 241 240 240 235 235 237 238 243 243 241 242 246 248 250 252 253 253 259 263 266 268 272 277 281 286 291 295 297 302 307 311 313 312 314 317 319 319 310 306 307 312 323 329 328 325
240 238 238 237 238 238 237 242 227 243 239 241 244 242 242 247 246 248 251 253 253 255 261 265 269 271 277 279 282 286 290 292 296 300 303 305 307 308 311 314 313 309 306 303 306 312 318 323 326
239 239 241 239 239 239 241 244 227 240 245 241 244 246 243 248 246 248 252 255 256 256 257 260 265 269 273 277 280 283 287 289 292 294 296 299 301 303 304 307 310 305 308 303 302 303 308 318 313
236 239 246 248 246 244 243 242 239 234 243 244 239 244 247 247 250 248 250 253 256 258 259 261 262 265 269 273 276 280 283 286 289 290 293 295 296 297 298 299 302 302 298 303 301 295 299 312 315
234 236 244 246 246 245 241 238 237 234 231 241 244 241 244 250 254 251 249 252 255 257 259 261 263 264 267 270 272 276 280 283 285 286 289 290 291 292 294 295 296 297 296 299 297 293 295 307 310
231 235 235 239 241 245 243 240 239 239 237 236 241 243 243 242 251 256 256 255 255 255 258 261 262 263 265 268 271 274 277 279 281 283 284 286 288 289 293 293 292 294 298 298 293 291 292 299 306
230 232 235 238 240 243 243 239 241 238 238 237 239 242 244 244 245 250 255 257 259 262 261 261 261 263 265 269 272 274 274 276 278 279 281 283 285 288 289 290 292 296 297 292 287 288 291 298 303
231 230 232 235 239 243 245 241 242 239 239 239 242 243 246 246 248 251 253 257 260 263 264 264 264 264 265 268 269 270 271 273 275 277 279 282 284 287 288 288 291 294 292 286 287 289 294 300 303
Height
10899 10901 10906 10908 10910 10911 10913 10913 10914 10916 10916 10914 10911 10911 10908 10905 10904 10903 10901 10899 10895 10891 10886 10884 10879 10873 10867 10861 10856 10850 10845 10840 10836 10830 10825 10821 10818 10816 10815 10813 10811 10809 10808 10807 10806 10804 10803 10802 10800
10896 10899 10903 10906 10908 10910 10911 10911 10911 10914 10915 10914 10913 10911 10908 10906 10906 10904 10902 10899 10895 10892 10889 10887 10882 10877 10871 10865 10860 10855 10849 10844 10840 10835 10829 10824 10821 10818 10816 10814 10812 10809 10808 10807 10806 10805 10803 10802 10801
10892 10896 10900 10905 10907 10909 10911 10908 10907 10910 10912 10913 10912 10911 10909 10907 10905 10903 10901 10898 10895 10893 10892 10889 10885 10880 10874 10869 10864 10859 10854 10848 10843 10838 10833 10829 10825 10821 10817 10815 10813 10811 10809 10807 10806 10805 10804 10803 10802
10886 10891 10898 10903 10904 10905 10907 10907 10904 10906 10909 10909 10910 10910 10909 10906 10904 10902 10900 10898 10897 10896 10893 10891 10887 10882 10877 10872 10868 10863 10858 10852 10847 10842 10836 10833 10828 10824 10820 10816 10813 10812 10810 10808 10806 10804 10803 10803 10802
10881 10886 10894 10899 10900 10901 10906 10906 10905 10902 10905 10908 10908 10908 10907 10905 10903 10902 10900 10899 10898 10896 10895 10892 10888 10884 10879 10874 10870 10866 10862 10856 10852 10847 10842 10838 10833 10828 10824 10820 10816 10813 10810 10809 10807 10805 10803 10803 10803
10876 10881 10889 10896 10897 10899 10904 10906 10904 10903 10901 10905 10908 10906 10906 10905 10902 10902 10901 10901 10899 10896 10895 10893 10889 10885 10881 10877 10873 10869 10864 10860 10855 10852 10847 10842 10838 10833 10828 10825 10821 10817 10813 10810 10808 10806 10804 10803 10803
10872 10876 10885 10891 10893 10896 10903 10905 10905 10904 10902 10904 10904 10904 10905 10905 10902 10902 10901 10900 10899 10897 10895 10893 10891 10887 10884 10880 10875 10871 10867 10863 10858 10854 10851 10847 10843 10838 10832 10828 10825 10821 10818 10813 10810 10808 10806 10804 10802
10864 10868 10878 10886 10892 10894 10899 10901 10902 10901 10900 10901 10901 10902 10903 10904 10902 10900 10899 10898 10897 10896 10895 10893 10891 10888 10885 10882 10878 10874 10871 10866 10861 10858 10854 10849 10846 10843 10838 10834 10830 10826 10821 10817 10812 10809 10806 10805 10803
10860 10863 10870 10879 10888 10888 10893 10897 10900 10897 10897 10898 10899 10901 10901 10901 10901 10899 10897 10896 10896 10895 10894 10892 10891 10888 10885 10882 10880 10877 10873 10870 10865 10861 10856 10853 10849 10845 10840 10837 10835 10830 10826 10821 10816 10812 10810 10807 10805
10854 10855 10859 10871 10882 10883 10884 10892 10897 10897 10896 10895 10897 10898 10898 10898 10899 10898 10896 10895 10894 10892 10892 10890 10889 10887 10885 10883 10881 10879 10876 10872 10868 10864 10860 10855 10852 10848 10844 10840 10836 10833 10829 10826 10821 10817 10814 10811 10809
10849 10849 10846 10861 10874 10878 10878 10883 10890 10894 10893 10893 10894 10895 10894 10893 10894 10895 10894 10893 10891 10890 10888 10887 10887 10886 10883 10882 10881 10879 10877 10874 10870 10866 10862 10857 10853 10850 10846 10842 10838 10835 10831 10827 10824 10820 10817 10815 10811
10841 10840 10837 10850 10866 10875 10874 10876 10886 10887 10891 10891 10890 10891 10891 10890 10890 10890 10891 10890 10889 10887 10885 10885 10884 10885 10882 10880 10879 10878 10876 10874 10871 10867 10864 10859 10855 10851 10847 10844 10840 10836 10831 10827 10824 10821 10818 10815 10812
10832 10832 10830 10838 10861 10869 10871 10869 10875 10881 10883 10887 10888 10888 10888 10888 10887 10887 10886 10886 10886 10886 10885 10883 10883 10882 10880 10878 10877 10875 10874 10872 10870 10868 10864 10860 10856 10852 10848 10844 10840 10837 10833 10827 10824 10821 10819 10815 10812
10825 10825 10826 10830 10848 10858 10864 10861 10864 10871 10876 10880 10883 10883 10883 10884 10884 10883 10882 10882 10882 10884 10883 10880 10879 10878 10877 10876 10875 10873 10872 10870 10867 10865 10863 10860 10856 10852 10848 10844 10840 10836 10832 10829 10824 10820 10818 10815 10811
10809 10812 10817 10822 10832 10844 10851 10855 10857 10854 10866 10874 10879 10879 10879 10879 10880 10880 10878 10877 10878 10878 10880 10879 10875 10873 10873 10873 10872 10871 10869 10868 10864 10862 10859 10858 10855 10851 10847 10843 10838 10834 10831 10828 10823 10819 10815 10813 10810
10798 10804 10810 10812 10818 10832 10840 10849 10845 10843 10853 10867 10874 10876 10876 10874 10876 10877 10874 10872 10871 10873 10873 10875 10872 10869 10869 10869 10869 10868 10866 10864 10862 10859 10855 10853 10851 10849 10845 10841 10836 10833 10829 10825 10820 10817 10813 10809 10807
10790 10803 10806 10804 10806 10814 10831 10837 10832 10832 10845 10859 10864 10870 10873 10872 10871 10872 10874 10870 10865 10865 10867 10868 10868 10868 10867 10865 10865 10863 10862 10861 10859 10857 10853 10849 10845 10844 10842 10839 10834 10830 10826 10821 10818 10814 10810 10807 10803
10786 10791 10792 10794 10793 10799 10813 10827 10817 10820 10840 10852 10856 10861 10864 10866 10866 10868 10870 10869 10865 10862 10862 10862 10863 10865 10864 10863 10861 10858 10857 10856 10855 10853 10851 10847 10842 10838 10835 10834 10832 10827 10822 10817 10814 10811 10807 10803 10799
10762 10769 10777 10782 10776 10784 10800 10813 10814 10815 10828 10843 10847 10847 10849 10852 10853 10861 10863 10865 10863 10860 10859 10858 10858 10859 10857 10857 10856 10855 10852 10849 10848 10847 10845 10844 10841 10835 10831 10826 10826 10824 10821 10816 10810 10806 10802 10799 10795
10745 10755 10769 10768 10767 10767 10781 10797 10804 10803 10814 10829 10836 10837 10840 10842 10843 10849 10852 10855 10855 10854 10853 10852 10852 10851 10851 10849 10848 10848 10846 10844 10842 10840 10838 10836 10836 10833 10828 10823 10818 10816 10814 10812 10808 10803 10799 10795 10791
10733 10743 10754 10756 10748 10752 10760 10777 10789 10799 10804 10814 10826 10830 10831 10833 10832 10838 10841 10845 10847 10846 10845 10846 10845 10843 10842 10843 10841 10841 10838 10837 10834 10832 10829 10828 10828 10827 10825 10820 10815 10810 10806 10803 10802 10798 10795 10791 10786
10713 10731 10734 10731 10728 10742 10733 10761 10767 10791 10797 10803 10815 10821 10821 10823 10820 10825 10828 10835 10838 10836 10836 10836 10837 10836 10834 10832 10833 10833 10831 10828 10826 10823 10821 10817 10816 10818 10819 10816 10810 10806 10801 10797 10793 10791 10789 10784 10780
10706 10702 10709 10705 10706 10707 10716 10738 10775 10777 10788 10794 10802 10810 10811 10807 10809 10810 10816 10824 10829 10827 10826 10826 10826 10829 10827 10824 10823 10824 10823 10823 10820 10818 10815 10812 10809 10806 10808 10807 10805 10800 10797 10792 10788 10784 10782 10779 10774
10674 10680 10678 10677 10680 10676 10726 10722 10774 10765 10782 10783 10783 10793 10798 10786 10795 10797 10801 10809 10817 10817 10817 10816 10815 10820 10818 10817 10815 10815 10816 10815 10814 10812 10809 10807 10804 10801 10798 10798 10796 10794 10792 10788 10784 10779 10774 10772 10770
10636 10648 10650 10653 10654 10692 10726 10701 10763 10765 10765 10773 10772 10773 10780 10767 10780 10788 10794 10796 10799 10800 10803 10806 10806 10810 10808 10807 10805 10805 10806 10805 10805 10805 10804 10801 10798 10796 10793 10791 10789 10787 10786 10781 10777 10772 10768 10766 10765
10629 10632 10638 10648 10659 10691 10688 10682 10747 10754 10751 10756 10759 10757 10757 10759 10763 10778 10782 10782 10781 10784 10788 10793 10796 10799 10798 10797 10795 10795 10795 10795 10794 10794 10793 10791 10789 10787 10784 10782 10780 10778 10776 10773 10769 10765 10762 10758 10755
10614 10585 10647 10625 10628 10634 10652 10684 10709 10726 10738 10739 10743 10746 10748 10747 10749 10758 10765 10767 10766 10767 10773 10777 10782 10786 10786 10784 10782 10785 10786 10784 10783 10782 10780 10779 10777 10776 10774 10771 10768 10765 10764 10760 10757 10753 10749 10747 10743
10575 10607 10585 10580 10593 10598 10635 10669 10686 10712 10726 10729 10726 10728 10734 10741 10737 10738 10744 10748 10747 10752 10758 10761 10765 10769 10770 10769 10771 10773 10773 10772 10771 10769 10768 10767 10765 10763 10761 10758 10755 10753 10750 10747 10744 10741 10737 10735 10732
10557 10552 10555 10565 10569 10579 10608 10641 10680 10696 10699 10705 10710 10712 10718 10726 10726 10727 10729 10732 10733 10736 10741 10743 10745 10750 10753 10755 10758 10759 10758 10758 10757 10757 10755 10754 10751 10749 10747 10744 10741 10738 10736 10733 10731 10728 10725 10721 10715
10507 10518 10528 10526 10549 10562 10585 10624 10656 10673 10682 10685 10688 10696 10703 10711 10713 10714 10717 10719 10720 10722 10722 10720 10724 10731 10738 10740 10739 10739 10740 10740 10741 10740 10739 10738 10736 10734 10731 10730 10727 10723 10721 10717 10716 10713 10709 10705 10699